Location: Unspecified
(0.0000°N, 0.0000°E)
Time: 02:52:20
(UTC+01:00)

DELTA 2 R/B (1) - Visible Passes

Search period start: 04 December 2016 00:00
Search period end: 14 December 2016 00:00
Orbit: 791 x 803 km, 39.6° (Epoch: 03 December)

Date Brightness Start Highest point End Pass type
(mag) Time Alt. Az. Time Alt. Az. Time Alt. Az.
04 Dec 4.4 20:25:48 10° SSW 20:30:52 35° SE 20:31:25 34° SE visible
04 Dec 6.5 22:12:12 10° WSW 22:12:12 10° WSW 22:12:12 10° WSW visible
05 Dec 4.6 19:55:09 10° SSW 20:00:02 31° SE 20:02:31 22° E visible
05 Dec 5.7 21:41:14 10° WSW 21:43:19 21° W 21:43:19 21° W visible
06 Dec 4.8 19:24:31 10° SSW 19:29:13 27° SE 19:33:40 11° E visible
06 Dec 4.7 21:10:18 10° WSW 21:14:28 38° WNW 21:14:28 38° WNW visible
07 Dec 4.1 20:39:22 10° WSW 20:44:45 48° NW 20:45:38 44° NNW visible
08 Dec 4.0 20:08:29 10° WSW 20:13:56 55° NW 20:16:50 27° NNE visible
09 Dec 3.9 19:37:36 10° WSW 19:43:08 63° NW 19:48:02 13° NE visible
10 Dec 3.8 19:06:45 10° SW 19:12:20 72° NW 19:17:53 10° NE visible
10 Dec 6.0 20:58:24 10° NW 20:58:52 10° NW 20:59:21 10° NNW visible
11 Dec 4.6 05:58:31 10° NNW 06:03:41 40° NE 06:08:52 10° ESE visible
11 Dec 5.9 20:26:06 10° WNW 20:28:01 12° NW 20:29:57 10° NNW visible
12 Dec 4.7 05:29:36 19° NNW 05:32:53 35° NE 05:37:55 10° ESE visible
12 Dec 5.9 19:54:31 10° WNW 19:57:11 13° NW 19:59:49 10° N visible
13 Dec 4.8 05:00:47 28° NNE 05:02:04 31° NE 05:06:56 10° ESE visible
13 Dec 5.8 19:23:09 10° WNW 19:26:21 15° NW 19:29:31 10° N visible
